Temp
25 24 23 23 23 25 26 26 26 26 26 26 25 24 24 23 24 27 28 27 26 25 25 25 25 25 25 25 24 23 24 24 24 25 25 26 26 26 26 26 25 25 25 25 25 25 24 24 24 23 23 23 23 23 22 22 22 22 22 22 22 22 22 22 22 22 22 22 22 22 22 23 23 23 23 23 23 23 24 24 24 23 23 23 23 23
25 23 22 23 25 26 26 25 26 25 25 26 25 24 24 23 24 27 28 27 27 25 25 26 25 25 26 25 25 24 23 24 24 25 25 26 26 26 26 26 26 26 26 26 25 25 25 24 24 24 23 23 23 23 22 22 22 22 22 22 22 22 22 22 23 23 22 23 23 23 23 23 23 23 23 24 24 24 24 24 24 23 23 23 23 23
23 23 23 24 24 25 25 25 25 25 25 25 25 24 23 24 25 27 27 27 26 26 25 26 25 25 26 26 25 24 24 24 25 25 26 26 26 26 26 26 26 26 26 26 25 25 25 25 24 24 23 23 23 23 23 23 22 22 22 22 22 22 22 22 23 23 23 23 23 23 23 23 23 24 24 24 24 24 24 24 23 23 23 23 23 23
22 23 25 25 24 24 25 25 25 25 25 25 24 23 23 25 25 24 26 26 26 26 26 26 25 25 26 25 25 25 24 25 25 25 26 26 26 26 27 27 26 26 26 26 26 25 25 25 24 24 24 23 23 23 23 23 22 22 22 22 22 22 22 22 23 23 23 23 23 23 23 24 24 24 24 24 24 24 24 24 23 23 23 23 23 23
23 25 25 25 24 25 25 25 25 25 24 24 25 24 23 25 25 25 26 26 26 25 26 26 24 23 25 25 25 25 25 25 25 25 25 26 26 26 27 27 27 26 26 26 26 25 25 25 25 24 24 24 23 23 23 23 23 22 22 22 22 22 23 23 23 23 23 23 23 23 23 23 23 23 23 23 23 24 24 23 23 23 23 23 23 23
25 25 25 25 25 25 25 25 25 24 23 23 25 25 25 26 26 26 27 26 24 23 25 26 22 22 24 24 24 25 24 25 25 25 25 25 26 26 26 26 26 26 26 26 26 26 25 25 25 24 24 24 23 23 23 23 23 23 22 22 22 22 23 23 23 23 23 23 23 23 23 23 23 23 23 23 24 24 24 24 24 23 23 23 23 23
25 25 25 26 25 25 24 24 25 25 23 22 25 26 27 27 27 26 26 25 22 22 25 26 23 21 23 24 25 25 24 24 25 25 25 25 25 25 26 26 26 26 26 27 26 26 26 25 25 25 24 24 24 24 24 23 23 23 23 22 22 22 23 23 23 23 23 23 23 23 23 23 23 23 23 24 24 24 24 24 24 23 23 23 23 23
25 26 25 25 25 25 24 24 25 26 24 23 25 27 27 28 27 26 26 24 24 24 25 26 24 22 22 24 25 25 24 24 25 25 25 25 25 25 26 26 26 27 27 27 27 26 26 26 25 25 25 24 24 24 24 23 23 23 23 23 23 23 23 23 23 23 23 23 23 23 24 24 24 23 24 24 24 24 24 24 24 24 24 23 23 23
26 26 26 26 25 24 25 25 26 26 25 25 27 28 28 28 27 27 26 24 24 24 22 23 24 22 21 24 25 25 24 24 24 25 25 25 26 25 26 26 26 27 27 27 27 27 27 26 26 25 25 25 25 24 24 24 23 23 23 23 23 23 23 23 23 23 23 24 24 24 24 24 24 24 24 24 24 24 24 24 24 24 24 24 24 23
25 26 26 26 25 25 26 26 26 26 26 26 27 28 28 28 27 27 26 24 24 23 22 22 23 22 21 23 24 24 24 24 25 25 25 26 26 26 26 26 26 27 27 27 27 27 27 27 26 26 25 25 25 25 24 24 24 23 23 23 23 22 23 23 23 23 23 24 24 24 24 24 24 24 24 24 24 24 24 24 24 24 24 24 24 24
25 25 26 25 24 25 26 25 25 26 26 26 27 27 27 26 26 26 25 24 23 21 22 23 23 23 22 22 23 24 25 26 26 26 26 26 26 26 26 26 27 27 27 27 27 27 27 27 27 26 26 25 25 25 25 24 24 23 23 23 23 23 23 23 23 23 23 24 24 24 24 24 24 24 24 24 24 24 24 24 24 24 24 24 24 24
24 25 25 24 24 23 25 25 25 24 25 25 26 26 24 24 24 23 23 23 22 21 23 23 23 23 22 22 24 26 27 28 28 27 27 26 26 26 27 27 27 27 27 27 27 27 27 27 27 26 26 26 25 25 25 24 24 24 23 23 23 23 23 23 23 23 24 24 24 24 24 24 24 24 24 24 24 24 24 24 24 24 24 24 24 24
23 23 23 24 24 23 24 26 25 24 25 25 25 24 22 21 22 21 21 21 21 22 22 23 23 22 22 23 25 26 27 27 27 28 28 27 27 27 27 27 27 27 28 28 27 28 27 27 27 26 26 25 25 25 25 24 24 24 23 23 23 23 23 23 23 23 24 24 24 24 24 24 24 24 24 24 25 25 25 25 24 24 24 24 24 24
22 23 23 23 24 23 23 24 24 24 25 25 24 23 22 21 21 21 21 21 21 22 22 23 23 22 22 24 25 25 26 26 26 27 27 28 28 27 27 27 28 28 28 28 28 28 28 27 27 26 26 26 25 25 25 25 24 24 24 23 23 23 23 23 23 23 24 24 24 24 24 24 24 24 24 24 25 25 25 25 25 25 25 25 24 24
21 22 22 22 23 23 23 23 22 22 24 24 24 23 23 22 21 21 21 21 21 21 22 23 23 22 22 24 25 26 25 25 25 25 25 27 28 28 28 28 28 28 28 28 28 28 28 27 27 27 26 26 25 25 25 25 24 24 24 23 23 23 23 23 23 23 23 24 24 24 24 24 24 24 24 24 25 25 25 25 25 25 25 25 25 25
20 20 21 21 22 22 22 23 22 22 23 23 23 23 23 22 22 21 21 21 22 21 21 22 22 23 24 24 25 25 24 23 23 23 24 24 26 28 28 28 28 28 28 28 28 28 28 27 27 27 27 26 26 25 25 25 25 24 24 24 23 23 23 23 23 23 23 24 23 23 24 24 24 24 24 24 25 25 25 25 25 25 25 25 25 25
20 20 20 21 23 23 22 22 22 22 22 23 23 22 22 23 22 21 21 21 22 21 21 21 22 23 24 24 24 23 23 22 22 22 22 23 24 25 27 28 28 28 28 28 28 28 28 28 27 27 27 27 26 26 25 25 25 25 24 24 23 23 23 23 23 23 23 23 23 23 24 24 24 24 24 24 25 25 25 25 25 25 25 25 26 26
19 20 20 20 22 23 22 21 22 22 22 22 22 22 22 23 23 22 21 21 21 21 21 21 21 21 21 23 23 23 22 21 21 21 21 22 22 23 25 27 28 28 28 28 28 28 28 28 27 27 27 27 27 26 26 25 25 25 25 24 24 23 23 23 23 23 23 23 23 23 23 24 24 24 24 24 25 25 25 25 25 25 25 26 26 26
19 20 20 20 20 21 21 22 22 22 22 22 22 22 22 22 22 22 21 21 21 21 21 21 21 20 20 21 22 22 21 21 21 21 21 21 21 22 22 24 26 28 28 28 28 28 28 28 28 27 27 27 27 26 26 26 25 25 25 24 24 24 24 23 23 23 23 23 23 23 24 24 24 24 24 24 24 25 25 25 25 25 25 26 26 26
18 20 21 21 20 20 20 21 21 20 21 21 21 21 21 21 21 21 21 21 21 21 21 21 21 20 21 22 22 21 21 21 21 21 21 21 21 21 21 22 24 27 28 28 28 28 28 28 28 28 28 27 27 27 26 26 25 25 25 24 24 24 24 24 23 23 23 23 23 23 24 24 24 24 24 24 24 24 25 25 25 25 25 26 26 26
18 19 20 21 20 19 20 19 18 19 20 20 19 19 19 20 21 21 21 21 21 21 21 21 20 20 21 23 22 22 22 22 21 21 21 21 21 20 21 21 22 26 28 28 28 29 29 29 28 28 28 28 27 27 26 26 26 25 25 25 24 24 24 23 23 23 23 23 23 23 23 24 24 24 24 24 24 24 25 25 25 25 25 26 26 26
18 19 19 20 19 19 19 18 18 19 19 19 18 18 18 19 20 21 21 20 20 21 20 21 20 20 22 23 22 22 22 22 22 21 21 21 21 21 20 20 20 23 27 29 29 29 29 29 29 28 28 28 27 27 26 26 26 25 25 25 24 24 24 24 23 23 23 23 23 23 23 24 24 24 24 24 24 24 24 25 25 25 25 26 26 26
18 18 19 19 18 18 18 18 18 19 19 19 18 18 18 19 19 19 20 20 20 20 20 20 20 20 22 22 21 21 22 22 22 21 21 21 21 21 20 20 20 20 23 26 28 29 29 28 29 29 28 28 27 27 26 26 26 25 25 25 25 24 24 24 24 23 23 23 23 23 23 23 23 23 23 24 24 24 24 24 25 25 25 26 26 26
18 17 18 19 18 18 19 18 18 19 18 18 18 18 18 18 18 19 20 20 20 20 20 20 20 21 21 21 20 21 21 21 21 21 21 21 21 21 20 20 20 19 19 21 24 27 28 29 29 28 28 27 27 27 27 26 26 26 25 25 25 25 24 24 24 24 23 23 23 23 23 23 23 23 23 23 24 24 24 25 25 25 25 25 26 26
18 16 18 20 19 19 19 19 19 19 18 17 17 17 18 18 18 19 19 19 20 19 19 20 20 21 21 21 20 20 20 20 21 20 20 20 20 20 20 20 20 19 19 19 19 21 24 26 27 27 27 27 27 27 27 26 26 26 26 25 25 25 25 24 24 24 24 23 23 23 23 23 23 23 23 23 24 24 24 24 24 25 25 25 25 25
18 16 17 19 19 19 19 18 18 18 17 17 17 17 18 17 18 19 19 19 20 19 19 20 20 20 21 20 19 19 19 19 20 20 20 20 20 20 20 20 20 19 19 19 18 19 19 21 22 24 26 27 27 27 27 27 27 26 26 26 25 25 25 25 24 24 24 23 23 23 23 23 23 23 23 23 24 24 24 24 24 24 25 25 25 25
17 15 16 18 18 18 17 17 17 16 16 17 17 17 18 17 17 19 19 19 19 19 19 20 20 20 20 19 18 18 18 18 19 19 19 19 19 19 19 19 19 19 19 19 18 18 18 18 19 20 22 24 27 28 27 27 27 26 26 26 26 25 25 25 25 24 24 24 23 23 23 23 23 23 23 23 24 24 24 24 24 24 24 25 25 25
17 15 16 16 16 16 16 16 16 16 16 16 16 17 17 17 17 18 19 20 19 19 20 20 19 19 19 18 18 17 17 18 18 18 18 18 18 18 18 19 19 19 19 18 18 18 18 18 18 19 19 20 23 26 27 27 27 27 26 26 26 26 25 25 25 24 24 24 24 24 23 23 23 23 23 23 24 24 24 24 24 24 24 24 24 25
16 15 16 16 16 16 16 16 16 16 16 16 17 17 17 17 17 18 19 19 18 19 20 20 19 18 17 17 17 17 16 17 17 17 17 17 18 18 18 18 18 18 18 18 18 18 18 18 18 18 19 19 19 21 23 26 27 27 27 26 26 26 26 25 25 25 24 24 24 24 24 24 24 23 23 23 23 23 23 24 24 24 24 24 24 25
16 16 16 16 16 16 15 15 15 16 16 16 17 17 16 17 17 18 18 18 18 19 19 18 18 17 16 17 17 17 16 16 16 17 17 17 17 17 17 17 17 17 17 17 17 17 17 18 18 18 18 18 18 19 20 21 24 26 27 27 26 26 26 26 25 25 25 24 24 24 24 24 24 24 24 23 23 23 23 24 24 24 24 24 24 24
16 16 15 16 16 16 15 15 15 15 15 16 17 17 16 17 18 17 17 16 16 17 16 16 17 17 16 17 17 17 17 16 16 16 16 16 16 16 16 16 16 17 17 17 17 17 17 17 17 18 18 18 18 18 18 19 20 22 25 26 27 26 26 26 25 25 25 25 25 24 24 24 24 24 24 24 24 24 23 23 23 23 23 24 24 24
17 15 15 15 16 15 15 15 15 15 15 16 16 16 16 17 17 17 16 16 16 16 16 16 16 16 16 17 17 17 16 16 15 15 15 15 16 16 16 16 16 16 16 16 17 17 17 16 17 17 17 17 18 18 18 18 18 19 21 24 26 26 26 26 26 25 25 25 25 24 24 24 24 24 24 24 24 24 23 23 23 23 23 23 23 24
16 16 15 15 15 15 15 15 15 16 16 16 16 16 15 16 16 16 16 15 15 16 16 16 16 16 16 16 17 17 16 15 15 15 15 15 15 15 15 15 15 16 16 16 16 16 16 16 16 17 17 17 17 18 18 18 18 18 19 21 23 25 26 26 26 26 25 25 25 25 24 24 24 24 24 24 24 24 23 23 23 23 23 23 23 23
16 16 15 14 15 14 14 15 15 16 16 16 16 15 15 15 16 16 15 15 15 15 16 16 15 15 16 16 16 16 16 16 16 15 15 15 15 15 15 15 15 16 16 16 16 16 16 16 16 16 16 16 17 17 17 17 17 18 19 20 21 24 26 26 26 26 25 25 25 25 25 24 24 24 24 24 24 24 23 23 23 23 23 23 23 23
15 16 15 14 14 14 14 15 15 15 16 15 15 15 15 15 15 15 15 14 14 15 15 15 15 15 15 15 15 15 16 16 16 16 15 15 15 15 15 15 15 15 15 15 16 16 16 16 15 15 16 16 16 16 17 17 17 18 19 20 21 22 25 26 26 26 26 25 25 25 25 24 24 24 24 24 24 23 23 23 23 23 23 23 23 23
16 15 14 14 14 14 14 15 15 15 15 15 15 14 15 15 15 14 15 14 13 13 14 14 14 15 15 15 15 15 16 16 16 16 16 16 15 15 15 15 15 15 15 15 15 16 15 15 15 15 15 16 16 16 16 16 16 17 18 19 20 21 23 25 26 26 26 25 25 25 25 25 24 24 24 24 24 23 23 23 23 23 23 23 23 23
16 15 15 14 14 14 14 14 14 15 15 15 14 14 14 14 14 14 15 14 13 12 13 13 13 14 14 14 15 15 16 16 17 17 16 16 16 15 15 15 15 15 15 15 15 15 15 15 15 15 15 16 16 16 16 16 16 17 18 19 19 21 22 23 25 25 25 25 25 25 25 25 24 24 24 24 24 23 23 23 23 23 23 23 23 23
15 15 15 15 14 13 13 13 13 13 14 15 14 14 14 14 13 13 14 14 13 11 12 12 12 13 13 13 14 15 15 16 16 16 16 16 16 16 15 15 15 15 15 15 15 15 15 15 15 15 15 15 15 16 16 15 16 16 17 18 18 19 20 21 22 23 24 25 25 25 25 25 25 24 24 24 24 24 24 24 24 23 23 23 23 23
14 14 15 15 14 13 13 13 13 13 15 15 14 14 14 13 13 13 14 14 12 11 11 12 12 12 12 12 13 14 15 15 14 14 15 15 15 15 15 15 15 15 15 15 15 15 15 15 15 15 16 16 15 15 15 15 15 16 17 17 17 17 18 18 19 20 22 23 24 24 25 25 25 25 24 24 24 24 24 24 24 23 23 23 23 23
14 14 14 14 14 13 13 13 13 13 15 14 13 14 13 13 13 13 14 14 12 10 11 11 11 11 12 12 12 13 13 13 13 13 14 15 15 15 15 15 15 15 15 15 15 15 15 15 15 15 15 15 15 15 15 15 15 15 16 17 17 16 16 16 17 18 19 21 22 23 23 24 24 24 24 24 24 24 24 24 23 23 24 24 24 23
13 13 13 13 13 13 13 13 13 14 14 13 13 13 13 13 13 14 14 13 10 10 10 10 11 11 11 11 11 12 12 13 13 13 14 14 15 14 14 15 15 15 15 15 15 15 15 15 15 15 15 15 15 15 15 14 14 15 16 16 16 16 15 15 16 17 18 19 21 22 22 22 23 23 24 24 24 24 24 24 23 23 23 23 23 23
13 13 12 12 13 13 13 13 12 13 14 13 13 13 13 14 14 13 12 11 10 10 10 10 10 11 10 10 11 11 11 12 12 13 13 14 14 14 14 14 15 15 15 15 15 15 15 15 15 15 15 16 15 15 15 14 14 15 15 16 16 15 15 15 16 17 18 19 19 21 21 22 22 22 22 23 23 23 23 23 23 23 23 23 23 23
13 13 12 12 12 12 12 12 12 13 13 12 13 13 13 14 14 12 11 10 10 10 10 10 10 10 10 10 10 10 10 11 11 12 13 13 13 14 14 14 14 14 15 15 15 15 15 15 14 15 15 16 16 15 15 14 14 15 15 15 15 15 15 15 15 16 18 18 18 19 20 21 21 22 22 22 23 23 23 23 23 24 23 23 23 23
13 13 13 12 12 12 12 12 13 13 13 12 13 13 13 13 12 11 10 10 10 10 10 9 9 9 10 9 9 9 10 10 10 11 12 12 13 13 13 14 14 14 14 15 15 15 15 15 14 15 15 15 16 16 15 15 14 14 15 15 14 14 15 15 15 16 17 18 18 18 19 19 20 21 22 22 23 23 23 24 24 24 24 23 23 23
13 12 13 13 13 12 13 13 13 12 11 12 12 13 13 12 11 11 10 10 10 10 10 9 9 9 9 9 9 9 9 10 10 11 11 12 12 12 13 13 13 13 14 14 15 16 15 15 15 15 15 15 15 16 16 15 14 14 14 14 14 14 14 15 15 15 16 17 18 18 19 19 20 21 21 22 23 23 24 24 24 24 24 24 23 23
11 11 11 12 12 12 13 13 12 11 11 11 12 12 12 12 11 11 10 10 10 10 9 9 9 9 9 9 9 9 9 10 10 10 11 11 11 12 12 12 13 13 13 14 15 16 16 15 15 14 15 15 15 15 16 16 15 14 14 14 14 14 14 14 15 16 16 17 17 18 18 19 20 21 21 21 22 23 24 24 24 24 24 24 24 24
10 10 11 12 12 12 13 12 11 11 11 11 11 11 11 11 10 11 10 10 10 10 9 9 9 9 9 9 9 9 9 10 10 10 10 10 11 11 11 12 12 13 13 13 14 15 16 15 14 14 14 15 15 15 15 15 15 14 14 13 13 13 14 14 15 16 16 17 17 18 18 19 20 21 21 22 22 23 24 24 25 24 24 24 24 24
11 11 11 11 11 11 13 12 11 10 11 11 10 11 11 11 11 10 10 10 9 9 9 9 9 9 9 9 9 9 9 9 10 10 10 10 10 11 11 11 12 12 13 13 14 15 15 15 15 14 14 14 15 15 15 15 15 14 13 13 13 13 14 14 15 16 16 17 18 18 19 19 20 20 21 21 21 23 24 24 25 25 25 25 25 24
11 11 11 11 11 11 11 12 11 11 11 11 11 10 11 11 11 10 10 9 9 9 9 9 9 9 9 9 9 9 9 10 10 10 10 10 10 10 11 11 12 12 12 13 14 15 15 15 15 15 15 14 15 15 15 15 14 14 13 13 12 13 13 14 15 15 16 17 17 18 18 19 19 19 20 20 21 22 23 24 25 25 25 25 25 25
11 11 11 10 11 11 12 13 13 12 13 13 12 11 11 11 10 10 10 9 9 9 9 9 9 9 9 9 10 10 9 10 10 10 10 10 10 10 11 11 11 12 12 13 13 14 15 15 16 15 15 15 14 14 15 14 14 13 13 12 12 12 13 13 14 15 15 16 16 16 17 17 18 18 19 20 20 21 22 23 24 25 25 25 25 25
11 12 11 11 12 13 13 13 12 12 13 13 12 12 11 10 10 10 10 9 9 9 9 9 9 9 9 10 10 10 10 10 10 10 10 10 10 10 10 11 11 11 12 12 13 13 14 15 16 16 15 15 14 14 14 14 13 13 12 12 12 12 12 13 14 14 14 14 15 16 16 16 17 17 18 19 20 20 21 23 24 25 25 25 25 25
Height
769 781 789 790 790 785 782 782 782 783 784 787 790 793 796 798 794 785 781 775 775 789 793 789 790 788 787 787 785 785 785 788 789 788 789 789 788 789 791 793 793 794 793 794 797 799 801 803 805 808 810 813 816 818 820 822 825 827 829 831 833 835 837 839 841 843 845 846 848 850 851 852 853 855 856 857 857 858 859 860 860 861 862 863 864 865
770 785 790 784 782 779 779 780 781 783 785 787 790 793 795 797 793 782 779 776 773 786 790 785 790 790 786 785 784 786 788 789 787 787 788 787 788 788 789 791 792 793 793 794 797 798 800 803 804 807 809 811 814 816 819 821 823 825 828 830 831 834 836 838 840 842 843 845 847 848 850 851 853 854 855 856 857 858 859 859 860 861 862 863 864 865
781 787 784 778 777 778 780 781 782 785 786 789 791 794 797 794 789 783 780 777 775 783 788 786 791 790 783 783 783 784 787 786 784 784 785 786 788 787 787 789 791 793 794 794 795 797 799 801 803 806 808 810 812 814 817 819 822 824 826 828 830 832 835 837 839 841 843 845 847 849 850 852 853 854 855 856 857 858 858 859 860 861 862 863 864 865
790 784 775 774 776 778 781 781 783 785 786 790 791 795 797 791 791 790 784 781 778 782 786 785 790 789 784 784 783 782 782 783 783 783 783 784 785 785 784 786 789 791 793 793 794 795 797 799 801 804 806 808 810 812 815 817 820 822 824 826 828 831 833 835 838 840 842 845 847 849 851 852 854 855 856 856 857 857 858 859 860 861 862 863 864 865
784 775 768 771 775 777 781 782 784 788 790 790 788 792 793 788 789 789 786 784 782 784 783 785 796 795 787 789 787 782 781 782 782 783 784 783 782 783 784 785 786 788 790 792 792 793 795 797 799 801 803 806 808 811 813 815 818 820 822 824 827 829 831 834 836 839 842 844 847 849 851 852 853 854 855 855 855 856 857 858 859 861 862 863 864 865
776 769 767 772 775 777 781 783 783 787 793 792 785 784 785 784 785 786 785 787 794 797 785 785 806 805 790 790 789 783 784 784 782 782 783 782 782 783 784 784 785 785 786 788 789 791 793 796 798 799 801 804 806 808 810 813 816 818 821 823 825 827 829 832 835 838 841 843 845 847 849 850 851 852 852 853 854 855 857 858 859 860 862 863 864 865
772 767 766 771 774 777 782 784 781 782 792 796 782 774 777 779 782 785 786 789 799 801 785 781 803 807 795 790 787 784 786 785 782 782 780 780 781 782 783 783 783 784 785 786 787 789 791 793 795 797 799 802 804 806 808 811 814 816 819 821 824 826 828 830 833 836 839 841 844 845 847 848 849 850 851 852 854 855 856 858 859 860 861 862 863 865
769 768 769 771 774 779 783 784 778 777 789 793 776 770 775 776 781 785 785 789 791 790 788 785 793 805 801 789 782 783 788 789 784 782 779 777 779 779 780 780 780 781 782 784 785 786 787 789 792 794 797 799 801 804 807 809 812 814 817 819 822 824 826 829 831 834 837 839 842 843 845 847 848 849 850 852 854 855 856 857 859 860 861 862 863 864
766 769 771 771 776 781 779 775 771 773 782 780 769 769 771 772 779 781 783 790 789 791 799 794 792 807 805 787 780 783 788 791 785 779 777 775 775 776 777 777 777 777 777 779 782 783 784 786 789 792 794 797 800 802 805 807 809 812 815 818 820 822 825 827 830 832 835 837 839 842 844 845 847 849 851 852 854 855 856 857 858 859 860 861 862 863
766 768 767 768 777 778 771 768 767 771 775 770 766 769 769 773 777 779 785 788 790 798 802 795 794 806 807 793 789 791 789 786 779 774 773 771 771 772 773 774 773 774 775 775 777 779 781 783 786 789 793 795 798 800 803 805 808 811 814 816 819 821 823 825 828 830 833 835 838 840 842 844 846 848 850 852 853 854 855 856 857 858 859 860 861 863
767 764 763 768 775 772 767 767 766 766 768 766 768 771 774 780 779 782 787 785 796 807 795 786 790 799 804 797 791 788 780 772 771 772 771 769 769 769 768 770 770 771 772 772 774 775 777 781 784 788 790 793 796 799 801 804 806 809 812 814 816 819 821 823 826 828 831 834 836 838 840 842 844 846 848 850 851 853 853 854 855 857 858 859 860 861
771 769 769 770 770 770 767 766 767 766 767 769 772 776 783 789 786 791 793 791 807 810 789 785 791 797 805 798 787 782 770 765 768 769 768 766 764 763 762 763 764 766 768 769 771 773 775 778 782 785 787 790 793 796 799 801 804 807 809 812 815 817 819 821 824 826 829 832 834 836 838 840 842 844 846 848 849 851 852 853 854 856 857 858 859 860
778 778 776 772 768 771 771 769 770 769 769 772 774 777 791 803 804 807 808 808 812 803 791 792 793 797 803 795 787 783 773 769 767 763 762 761 758 757 757 758 759 760 762 765 767 769 772 774 777 781 783 787 790 792 795 799 802 804 807 810 813 815 817 819 821 824 827 829 832 834 837 839 841 843 844 846 848 849 851 852 853 854 855 857 858 859
786 782 779 777 773 772 774 778 779 776 774 777 778 780 792 806 815 820 822 820 813 799 792 793 792 796 799 792 787 783 777 772 767 763 760 757 755 755 754 754 755 757 758 760 763 765 767 770 772 776 779 783 786 789 792 796 799 802 805 807 810 812 815 817 819 821 824 827 830 833 835 837 839 841 842 844 846 848 850 851 852 853 855 856 857 858
798 796 790 788 785 779 778 781 784 783 781 781 780 779 785 795 806 813 814 812 808 802 797 795 795 796 794 791 785 778 777 773 768 765 760 755 753 751 752 754 754 756 756 756 759 760 762 765 768 772 775 779 782 785 789 793 795 798 801 804 807 809 813 816 817 819 822 825 828 831 833 836 837 839 840 842 844 846 848 850 851 853 854 855 856 857
805 806 797 790 786 784 783 781 779 782 785 782 780 782 786 791 796 800 802 799 796 801 806 800 793 786 782 782 779 775 776 774 770 767 763 760 756 750 751 753 753 754 753 754 756 757 758 761 764 768 771 775 778 782 785 789 792 795 798 801 804 807 810 813 815 817 819 822 825 828 831 833 835 837 839 840 842 844 846 848 850 851 853 854 856 857
807 808 800 791 785 782 784 783 779 782 786 783 783 788 790 788 791 796 801 799 794 801 807 801 795 791 784 779 778 779 779 777 776 773 769 767 762 756 753 750 749 750 750 750 751 752 754 757 760 764 767 771 774 778 781 784 788 791 795 799 802 805 808 810 813 815 817 820 823 826 828 831 833 835 837 838 840 842 844 846 848 850 852 853 855 856
807 807 803 798 792 782 780 782 780 780 784 787 790 792 788 785 789 793 799 804 804 804 805 804 809 811 804 795 788 787 786 784 783 780 776 772 767 764 761 753 749 747 746 747 747 749 751 753 757 760 763 767 770 773 777 781 785 789 793 796 799 802 805 808 811 813 815 817 820 823 825 828 830 832 834 836 839 841 843 844 846 848 850 851 853 854
807 807 804 801 798 791 781 781 785 784 781 785 789 788 788 792 795 794 799 806 809 810 810 812 816 819 819 814 804 799 799 795 790 785 782 778 773 771 766 759 752 746 744 745 746 748 748 749 753 756 759 763 766 770 774 778 783 787 790 793 796 799 802 805 808 811 813 815 817 820 822 825 827 829 832 835 837 839 840 842 844 845 847 849 851 852
807 807 807 799 796 795 791 793 804 804 792 786 789 791 793 796 798 798 801 804 805 810 815 817 821 822 818 812 808 806 804 799 794 790 786 784 780 775 770 763 755 747 743 743 743 744 745 746 749 752 755 759 763 768 772 776 781 783 787 791 793 797 800 803 806 808 810 813 815 817 820 822 825 827 830 832 835 837 838 840 842 843 845 846 848 850
807 810 813 804 797 801 807 811 817 817 808 802 805 810 810 805 801 801 806 808 806 810 815 819 829 831 815 804 806 806 802 798 796 792 788 785 781 776 772 765 755 746 740 738 739 739 742 745 748 751 754 757 761 765 769 773 777 780 784 787 790 795 798 801 803 806 808 810 813 815 817 820 822 825 828 830 832 834 836 838 839 841 843 844 846 848
810 813 815 813 811 814 818 816 814 813 813 814 817 822 821 815 811 809 812 816 814 813 816 820 831 832 813 803 805 803 800 798 795 792 788 784 780 776 771 765 757 748 740 738 738 738 740 742 746 751 754 757 760 763 766 770 774 777 781 784 788 792 794 797 800 803 806 808 811 813 815 817 820 822 825 827 830 832 833 835 837 839 841 843 844 846
811 815 816 820 823 822 819 815 813 811 811 812 817 821 821 818 820 822 820 820 819 818 818 820 827 826 811 803 805 803 799 798 794 792 789 784 780 776 771 765 759 753 746 741 739 739 741 742 745 750 753 756 758 760 764 767 770 774 777 781 785 788 791 794 797 800 804 806 808 810 813 815 817 819 822 825 827 829 831 833 835 837 839 841 843 844
811 820 820 820 823 821 816 815 814 811 812 817 820 821 822 821 822 823 820 820 824 825 824 823 825 822 810 804 805 803 799 797 794 792 790 787 782 777 773 769 764 760 755 749 745 743 742 743 746 749 751 754 756 759 762 764 767 771 774 778 782 784 787 791 795 798 801 804 806 808 811 813 815 817 820 822 824 825 828 830 833 835 837 839 841 842
814 826 824 821 828 827 822 821 819 815 819 827 827 824 824 823 820 819 819 820 825 830 829 826 823 818 811 807 806 804 801 799 796 793 792 790 785 780 777 773 770 767 763 759 756 752 748 748 748 749 750 753 755 758 760 763 766 769 772 775 778 781 785 789 793 796 798 801 803 806 808 810 812 815 816 818 820 822 825 827 830 832 834 836 838 840
816 830 826 820 827 831 831 832 830 828 829 831 830 827 824 824 822 820 821 824 828 832 831 826 821 816 812 811 810 808 805 802 799 796 793 792 789 785 782 779 776 773 770 768 765 762 759 756 753 752 752 752 754 757 759 762 764 767 770 773 775 779 783 786 790 793 795 798 801 803 805 807 809 811 813 815 817 819 822 824 827 829 831 833 835 837
820 831 830 825 826 829 834 835 833 835 835 833 833 829 825 827 825 822 824 826 828 829 827 823 821 818 817 817 816 814 811 807 804 801 797 795 792 788 786 784 781 778 776 774 771 769 766 763 760 758 755 754 754 756 758 760 763 766 768 770 773 777 780 783 787 789 792 795 797 800 802 804 806 808 810 812 814 817 819 822 824 826 828 830 832 834
824 832 832 831 831 832 834 833 831 833 835 834 834 831 828 828 826 824 824 823 825 827 824 820 822 825 824 822 820 820 817 813 810 806 803 801 797 792 788 786 783 781 779 777 775 774 772 769 767 764 760 758 757 757 758 760 762 764 766 768 771 774 777 780 783 786 789 792 794 796 798 800 803 805 807 809 812 814 817 819 821 823 825 827 828 830
826 834 833 832 835 835 834 834 833 833 833 833 832 830 830 829 827 826 824 822 824 826 822 819 823 828 829 824 822 822 820 817 814 810 807 804 800 796 792 789 788 786 784 782 780 779 777 775 773 769 766 763 761 760 760 761 762 763 764 766 769 771 773 776 780 783 786 788 790 792 794 797 800 802 804 807 809 811 813 815 818 819 822 823 825 826
827 834 833 832 835 836 835 837 836 835 835 832 828 829 831 829 827 826 825 825 824 824 823 822 824 828 830 826 822 822 821 819 816 813 810 808 805 802 798 795 794 792 789 787 785 783 781 779 777 774 770 767 765 765 764 763 763 763 763 764 766 768 770 773 776 779 782 784 786 788 791 794 796 798 801 803 805 807 809 812 814 816 818 820 821 823
827 834 835 833 835 837 836 836 837 837 838 833 829 831 832 828 825 826 828 829 829 830 830 828 827 830 829 824 821 821 820 820 818 816 814 812 809 807 804 801 799 797 794 791 788 786 784 781 778 775 773 770 769 768 767 766 764 763 762 763 763 765 767 770 772 774 777 779 780 784 787 790 792 795 797 799 801 803 805 808 810 813 814 816 818 819
826 834 836 834 837 840 838 837 837 836 836 836 834 834 833 829 828 829 830 831 833 834 833 830 832 834 829 823 821 820 820 821 821 820 818 815 813 811 809 806 803 800 797 794 791 788 785 783 781 778 776 774 772 770 769 768 765 763 763 762 762 763 765 767 769 771 773 774 777 781 784 786 788 791 793 795 797 799 801 804 807 809 811 813 814 816
827 831 835 837 840 841 840 839 837 834 836 839 836 834 834 833 831 831 832 833 833 833 833 834 835 834 828 825 823 822 821 823 823 821 820 818 815 813 812 810 807 802 799 796 793 790 788 787 785 783 780 777 774 773 772 770 768 765 763 761 761 761 762 763 765 767 769 772 775 777 780 782 785 787 789 791 793 796 798 801 803 805 807 809 811 813
829 829 835 839 841 844 842 838 838 838 840 840 835 833 835 834 832 832 833 835 833 831 831 833 832 830 828 827 827 825 822 822 822 821 819 818 817 815 813 811 808 803 799 796 794 791 789 788 787 785 782 779 777 775 773 771 769 766 763 761 759 759 759 760 761 764 766 768 771 773 776 779 781 783 785 787 789 792 795 797 799 800 803 805 808 810
830 831 837 840 841 846 844 840 842 844 841 837 834 833 833 832 833 834 834 836 836 833 832 832 831 830 829 826 826 825 821 819 819 819 818 816 816 815 813 811 808 804 800 797 795 793 791 789 788 786 783 781 778 775 773 771 769 766 763 761 759 757 757 757 758 760 762 764 767 769 772 774 777 779 781 784 787 789 791 793 794 796 799 801 803 805
829 832 837 841 843 846 847 844 844 842 836 834 835 834 832 831 833 834 835 836 837 836 834 834 833 830 828 826 824 822 819 816 816 816 815 815 814 813 812 811 808 805 802 799 797 795 793 791 789 787 785 783 780 777 774 772 770 768 764 762 760 758 756 756 755 756 758 760 762 765 768 770 772 775 777 780 783 785 787 789 791 793 795 797 799 801
828 831 835 841 844 846 849 848 844 841 837 835 836 836 835 836 836 837 837 836 837 838 837 836 835 833 830 827 825 821 817 815 817 815 812 812 813 811 810 809 807 806 803 800 799 798 796 793 791 788 786 784 782 779 776 773 772 769 766 763 762 759 756 755 754 754 755 757 759 761 764 766 768 770 773 776 778 779 781 783 786 789 792 794 796 797
827 829 831 838 843 846 849 850 850 850 844 838 837 836 835 836 836 837 838 838 838 839 838 836 836 835 833 830 827 823 819 819 822 819 813 812 812 810 809 808 806 805 803 800 800 799 797 795 791 789 786 784 783 781 778 775 773 771 768 766 764 762 758 756 755 754 754 755 756 758 759 761 764 766 768 770 772 773 775 776 778 782 786 791 793 795
830 831 831 836 842 846 849 851 854 851 841 835 836 835 834 834 834 836 839 839 839 840 839 837 837 835 834 833 829 825 824 826 828 822 815 813 812 810 809 807 805 804 802 801 800 799 798 796 792 789 786 784 784 783 779 775 773 772 771 768 767 764 761 758 756 755 754 754 755 756 757 758 760 761 763 765 766 769 772 774 776 777 779 781 784 786
833 834 834 838 842 844 846 849 850 844 836 834 835 834 833 833 834 838 842 838 838 841 839 837 837 836 834 834 832 829 829 831 830 823 818 815 813 810 809 807 805 804 803 802 801 799 798 796 793 789 786 784 784 782 780 776 774 774 773 770 767 765 762 760 758 756 755 754 754 754 755 756 757 759 760 761 762 764 767 771 775 775 772 772 774 778
838 838 839 840 840 841 844 846 847 839 832 833 835 833 831 832 836 840 840 836 838 841 839 837 837 836 834 834 834 832 831 830 828 824 819 816 813 810 808 807 806 804 803 802 802 799 797 796 793 790 788 786 784 782 780 777 776 776 775 771 768 765 764 762 760 757 756 755 754 753 753 754 756 757 758 759 760 762 763 766 770 770 768 768 770 773
839 841 844 843 842 844 843 845 846 839 829 829 831 830 830 833 835 836 835 835 839 839 837 837 836 835 834 834 833 832 830 827 826 824 820 817 814 811 809 807 805 804 803 802 801 799 798 796 794 792 789 787 785 783 781 778 776 776 775 772 769 767 764 761 759 757 756 755 754 753 752 752 754 754 756 757 758 759 760 762 765 766 765 765 765 767
836 839 842 843 844 847 847 848 847 838 828 828 830 830 831 831 831 832 834 836 837 836 836 836 835 834 834 832 831 830 827 825 824 823 820 817 814 811 809 807 805 804 802 801 800 799 798 796 795 793 790 787 785 783 781 778 776 776 776 774 771 767 763 760 758 757 754 754 754 752 749 750 751 752 753 754 755 756 756 758 760 761 762 762 762 763
836 835 837 838 839 841 844 842 836 829 826 828 828 828 829 829 828 831 833 834 834 835 835 835 833 833 832 831 830 828 825 823 822 820 819 817 814 811 808 806 805 803 801 800 798 797 796 795 793 791 789 786 784 782 780 778 777 778 777 775 771 767 762 759 758 756 753 752 753 751 748 748 749 749 750 750 751 752 752 752 754 756 757 758 759 760
832 833 833 833 833 833 833 829 827 827 828 828 827 826 827 827 828 830 831 832 834 834 833 833 833 831 830 830 829 826 824 822 820 818 818 816 814 811 808 805 804 802 800 798 796 795 795 794 792 790 788 786 783 781 779 779 779 779 778 775 772 768 763 759 757 755 751 750 752 751 749 747 746 746 747 747 747 748 747 747 749 750 752 753 755 756
833 835 834 832 832 831 827 824 827 829 828 827 826 827 827 827 828 829 830 831 832 831 831 832 831 829 828 828 827 825 822 820 818 816 815 815 813 811 808 805 802 800 799 797 795 793 793 792 791 790 788 785 783 782 781 780 780 780 780 778 774 770 764 760 757 754 751 750 751 750 748 746 745 744 744 744 743 743 743 744 744 744 745 748 750 751
834 835 833 832 833 832 826 823 826 827 826 826 827 827 827 827 828 828 828 829 829 828 829 829 828 827 826 825 824 823 820 818 816 814 812 812 811 809 807 804 801 798 797 796 794 792 791 790 789 788 787 784 782 782 782 781 780 780 779 777 774 770 765 760 757 754 752 751 750 748 746 745 743 742 741 740 739 739 740 740 741 740 740 741 743 745
828 830 831 831 833 831 825 823 826 827 825 825 826 825 825 826 826 826 827 827 826 826 826 825 825 825 824 822 822 820 817 815 814 812 809 809 808 806 805 803 799 796 794 793 792 791 789 787 786 786 785 784 782 781 781 780 779 778 777 774 772 769 764 760 757 754 752 751 748 746 745 744 742 741 739 738 737 738 737 737 737 736 734 734 735 737
826 828 829 830 830 830 825 822 823 825 823 822 822 823 823 823 823 825 825 825 825 825 824 823 823 822 821 820 818 817 814 812 811 809 807 805 804 803 802 800 798 795 792 790 789 788 787 785 783 783 783 782 781 780 780 779 777 776 774 773 771 768 765 760 756 753 751 749 746 744 742 742 741 740 739 738 737 737 735 733 731 729 728 727 728 730
825 824 827 829 828 826 821 816 817 820 818 817 818 819 820 821 822 822 822 823 823 822 821 821 820 818 818 816 815 814 812 809 808 807 805 801 800 800 798 797 795 793 790 788 786 785 784 782 781 780 780 780 780 779 779 778 776 774 773 772 770 768 765 760 756 752 749 747 745 743 741 739 738 736 735 735 734 732 729 726 724 723 723 723 725 727
816 815 819 821 819 815 811 811 815 817 815 814 815 817 818 819 820 820 820 820 820 819 819 819 817 816 814 813 812 811 809 806 805 804 801 798 796 796 795 793 791 789 787 786 784 782 781 780 779 778 778 778 778 777 777 776 775 773 771 769 768 766 763 759 755 751 747 746 745 743 742 739 736 732 730 729 727 724 720 717 717 718 719 720 722 725
Wind_Speed
4 3 3 4 5 4 5 6 5 5 4 3 2 2 2 1 3 4 3 5 10 6 6 11 10 9 6 5 8 8 8 10 11 11 11 11 11 11 12 12 13 13 12 16 22 25 27 27 28 28 28 28 27 27 27 28 28 27 26 26 26 25 24 23 24 23 23 23 22 21 22 21 20 18 17 17 17 16 15 14 13 12 10 10 9 8
3 4 5 4 7 6 5 5 3 3 2 1 1 0 1 2 4 5 3 4 8 6 5 7 7 8 5 5 7 8 9 11 13 13 13 13 11 10 12 13 13 11 10 13 17 22 26 26 27 27 27 28 28 27 28 29 30 29 28 27 27 26 25 25 25 25 25 24 23 22 22 21 20 19 18 17 16 15 15 14 13 12 11 11 10 8
1 3 5 5 6 4 2 3 3 1 2 2 1 1 2 2 3 4 4 3 5 6 3 4 7 7 5 5 7 9 10 9 10 12 12 12 11 10 12 13 12 10 10 12 14 19 24 25 27 27 26 28 30 30 30 30 30 30 29 29 29 28 27 26 26 26 25 24 23 22 21 20 19 19 18 16 15 14 14 13 13 13 12 12 10 10
3 4 6 6 5 4 1 2 4 2 0 2 2 2 2 2 1 2 4 4 2 2 1 4 5 4 2 4 7 10 10 7 7 9 9 10 11 11 12 11 11 13 12 13 13 15 21 24 25 26 26 28 29 29 30 31 30 30 31 31 30 30 29 28 27 27 26 23 21 20 19 18 18 17 16 16 16 15 14 13 14 14 13 13 11 11
4 6 4 5 6 5 3 0 3 0 2 2 4 4 3 2 3 4 3 2 3 2 1 4 2 4 2 5 5 7 8 7 7 8 9 10 10 9 8 9 11 13 12 13 13 13 17 21 24 26 27 28 28 28 30 32 32 31 32 32 32 32 31 30 29 27 26 23 21 20 17 16 17 16 16 17 18 17 16 15 14 15 14 14 13 12
5 6 3 5 4 5 4 3 3 5 2 3 3 7 7 5 6 4 1 2 4 3 3 3 2 5 3 5 6 6 8 9 8 10 12 11 11 9 9 9 9 11 11 13 13 13 16 20 23 26 28 28 28 30 32 33 33 32 32 33 33 32 32 31 30 28 27 25 23 22 20 18 18 18 19 19 20 19 18 16 15 15 15 15 14 12
3 3 2 5 4 5 4 4 3 6 3 2 4 8 10 8 6 4 3 2 1 2 4 2 2 3 4 4 6 6 8 10 9 11 13 12 11 11 10 10 9 10 11 11 12 13 16 20 23 24 27 28 29 31 32 33 34 34 33 33 33 33 33 32 31 30 29 27 25 25 25 24 22 22 22 22 21 19 18 16 15 15 15 15 15 13
2 1 1 3 4 4 4 4 5 8 6 3 5 6 8 7 6 6 5 4 3 2 3 1 3 1 4 4 5 7 7 8 9 11 12 12 12 13 12 12 11 11 12 12 12 13 15 20 23 24 27 29 30 31 32 32 33 34 34 34 34 34 33 33 32 31 31 29 28 27 27 26 25 24 23 22 20 19 18 18 17 16 15 15 15 15
2 2 1 3 3 3 4 5 6 9 5 5 6 7 7 7 6 5 6 4 2 0 3 3 2 1 4 4 2 8 7 9 13 14 13 13 14 14 14 14 14 12 12 13 14 14 16 21 25 27 29 30 32 32 32 33 34 34 34 34 34 34 34 33 33 32 32 32 31 30 29 27 25 24 23 22 20 19 19 19 19 18 17 16 16 16
0 1 4 5 3 3 5 5 6 10 6 4 5 5 2 3 4 3 5 4 2 2 4 5 4 2 4 4 1 6 7 11 13 12 13 13 14 15 14 15 15 12 11 13 14 15 19 24 27 29 30 31 32 32 33 34 33 34 33 32 33 34 34 33 33 33 33 33 32 31 31 29 27 24 22 22 21 20 21 21 21 21 19 18 17 17
3 3 1 5 2 4 5 3 4 8 5 1 3 3 3 4 3 3 1 3 3 1 6 7 8 5 2 4 4 5 5 8 10 8 10 12 13 14 14 14 15 14 11 13 14 15 21 26 27 29 30 31 31 31 32 32 32 33 33 33 34 35 34 34 34 34 34 33 33 33 33 31 29 26 23 22 22 22 22 23 23 23 22 19 18 18
6 6 3 1 2 3 3 1 1 1 1 2 2 4 3 2 3 4 4 2 2 4 6 4 6 5 1 4 3 4 7 7 6 8 11 15 16 16 15 15 16 15 13 13 13 14 17 20 23 26 29 30 31 31 31 32 32 33 33 33 33 34 34 34 34 35 35 34 34 34 34 32 31 28 25 25 25 24 25 25 24 24 23 21 20 20
4 3 4 5 4 7 6 2 2 5 5 4 4 5 4 1 2 0 1 0 3 4 4 1 4 3 3 2 4 7 10 11 8 7 9 13 16 17 16 16 15 14 14 13 13 14 14 14 18 24 27 29 30 31 32 32 32 33 33 33 33 34 35 35 35 35 36 36 35 35 34 33 32 31 29 28 27 26 26 25 25 25 24 23 22 22
2 2 8 8 5 7 6 3 2 2 4 4 3 5 4 2 2 2 2 0 2 4 4 1 3 1 2 0 5 8 8 10 10 9 8 8 12 15 15 15 15 14 15 14 13 14 13 14 19 24 27 29 30 32 33 33 33 33 33 34 34 35 36 36 36 36 36 37 37 36 35 34 34 33 31 30 29 28 27 26 26 26 25 24 23 23
3 1 7 6 4 6 5 2 1 2 2 3 2 4 3 4 4 3 3 3 3 3 3 2 3 3 3 4 3 6 7 10 12 12 11 9 7 11 12 12 13 14 14 13 14 15 14 17 22 25 27 29 31 33 34 34 35 34 34 35 36 36 35 35 36 37 37 37 37 36 35 35 35 35 33 32 31 30 28 28 27 27 26 25 23 22
4 1 5 5 3 4 5 4 1 2 1 2 0 4 3 3 4 2 3 5 4 3 1 1 3 2 4 4 6 11 10 13 15 15 15 15 11 5 10 11 12 13 14 13 14 15 15 19 24 26 27 30 32 33 34 35 36 36 35 36 37 37 37 37 37 37 38 38 37 36 36 35 35 35 34 33 32 31 30 29 28 28 26 25 23 21
3 0 6 7 5 4 4 4 2 4 1 1 3 2 2 3 4 2 1 0 3 4 2 2 1 4 2 1 10 17 15 17 18 17 16 15 15 8 6 11 12 13 14 14 15 15 15 18 23 26 28 30 32 33 35 37 38 38 36 35 36 36 36 37 38 38 38 38 36 36 36 36 36 36 36 35 34 33 31 29 28 28 27 25 24 22
3 1 4 5 5 6 5 2 1 5 3 2 2 1 3 2 3 2 1 2 4 3 2 2 3 5 4 1 9 19 19 19 18 17 16 15 16 14 9 7 10 14 14 15 15 15 15 17 22 26 29 31 34 35 37 38 39 38 38 37 37 36 36 37 38 37 37 37 37 36 36 37 37 37 37 36 35 34 32 30 29 28 28 27 25 23
2 1 3 2 3 8 7 4 2 6 6 3 2 1 1 3 1 1 2 2 2 3 1 3 3 4 4 3 9 16 17 18 17 15 16 17 17 15 14 13 11 12 13 13 13 13 13 16 21 26 29 32 35 36 37 38 38 37 38 38 38 39 39 39 39 38 37 37 37 38 38 38 38 38 37 36 35 34 33 33 32 30 29 28 26 25
2 3 2 5 5 5 5 6 3 6 7 4 3 4 3 2 2 1 1 2 2 2 3 1 3 3 2 4 8 12 12 14 15 14 14 15 16 14 14 15 13 11 12 12 13 14 13 16 23 28 30 32 34 35 35 36 36 37 38 38 38 38 38 38 39 39 38 38 38 37 37 38 38 38 38 36 35 34 34 35 34 32 31 30 28 27
2 3 1 6 7 4 3 3 2 3 5 5 5 5 5 3 2 2 2 2 2 3 3 2 3 1 3 3 5 8 10 11 12 13 13 14 15 14 14 16 14 10 13 13 13 14 14 15 21 27 29 31 32 33 34 35 37 37 37 37 38 37 36 37 37 38 38 38 38 37 37 37 38 38 37 36 35 35 35 35 35 34 32 31 30 29
2 2 2 3 5 4 1 3 3 1 3 5 4 4 3 3 3 3 2 3 2 2 2 3 4 2 2 3 3 6 7 9 11 11 12 15 17 16 16 17 17 11 8 12 12 12 12 13 18 23 25 27 28 30 33 34 35 36 37 37 37 36 37 37 37 38 37 37 36 37 37 37 38 38 37 36 36 36 36 36 36 34 32 32 32 31
1 3 3 2 2 1 4 6 4 1 4 6 5 4 3 2 3 4 2 1 2 3 1 2 4 3 2 2 4 6 6 7 10 11 11 12 14 16 18 18 19 17 11 6 7 8 8 11 16 19 22 25 27 29 32 34 34 35 37 37 36 36 37 38 38 38 37 36 36 37 37 37 37 37 36 36 36 37 37 37 36 35 33 33 33 32
1 3 3 2 3 4 5 5 5 3 5 5 4 4 3 3 2 1 3 2 2 3 2 2 2 3 3 3 5 5 7 8 9 11 12 11 12 14 17 18 18 18 18 14 7 3 3 8 12 14 18 22 24 27 30 31 33 35 36 36 36 37 38 37 36 36 36 36 36 37 36 36 36 35 36 37 37 38 38 37 36 36 35 34 33 33
1 2 3 3 3 4 4 4 5 4 4 3 2 5 5 5 5 2 1 2 2 1 2 3 2 3 2 4 7 7 9 11 11 11 11 10 11 13 14 16 16 17 18 18 16 13 8 2 4 8 14 18 21 24 28 30 31 32 34 36 36 36 37 36 36 36 36 37 36 35 36 36 35 35 36 38 39 39 39 38 37 37 36 35 34 34
2 2 3 4 3 2 2 1 2 3 3 2 3 6 6 7 8 3 2 3 1 1 1 3 3 4 2 6 10 11 12 12 13 13 12 11 11 12 12 13 14 15 16 18 17 16 13 11 9 5 5 14 20 22 24 28 30 31 32 35 36 36 35 35 36 36 36 36 35 35 35 36 35 35 37 38 39 39 39 38 37 37 37 37 36 35
3 2 2 5 5 5 5 5 4 1 2 2 4 7 6 6 6 3 3 2 2 1 2 2 3 3 7 10 11 11 12 13 13 13 13 12 12 11 11 12 13 13 14 15 16 15 15 14 14 15 13 5 12 21 24 25 27 29 31 33 34 35 35 35 36 36 36 36 35 35 36 36 36 37 37 38 39 39 38 38 37 37 37 37 37 36
5 3 3 5 3 3 5 4 2 1 1 1 3 6 6 6 6 4 2 2 3 3 2 4 1 4 8 10 10 10 11 11 11 13 12 12 12 11 10 13 16 16 15 15 16 16 16 16 14 16 19 18 10 6 17 24 27 28 29 32 34 34 34 35 36 36 36 35 35 36 37 37 37 37 37 38 38 37 37 37 37 37 37 36 36 37
5 1 1 3 2 2 1 0 2 2 0 2 2 3 4 6 6 3 2 4 3 3 4 5 1 5 7 10 9 9 9 9 10 11 11 11 12 12 12 14 16 16 16 16 16 15 15 15 15 16 18 21 22 19 8 9 21 28 29 30 33 35 36 36 36 36 36 35 36 37 38 37 36 36 36 36 36 36 37 37 37 37 37 37 37 38
4 1 1 2 2 3 2 1 1 2 2 4 4 2 3 5 4 3 3 3 1 4 3 5 2 5 7 10 8 7 7 6 7 8 9 11 13 13 13 14 14 14 14 14 14 14 13 13 14 16 20 22 22 24 22 15 6 16 26 31 32 34 36 36 36 36 36 36 38 39 38 37 36 36 36 36 37 37 37 37 37 37 37 37 38 38
3 1 1 3 4 3 4 3 2 1 1 3 4 4 4 4 3 3 3 4 3 2 5 4 3 5 6 9 7 6 5 5 7 9 10 10 12 12 12 12 12 12 12 12 12 12 13 14 14 17 20 22 23 22 22 23 20 11 13 25 32 34 35 36 36 37 37 39 40 39 38 37 37 36 36 37 38 37 37 37 36 36 36 37 38 38
3 1 1 4 4 3 4 4 5 3 1 0 4 5 5 4 3 2 3 5 4 4 5 4 4 4 6 7 6 6 6 7 8 9 9 9 10 11 12 11 11 10 11 11 11 12 14 14 15 18 20 21 23 24 24 24 24 21 14 11 23 32 34 34 35 36 37 39 39 37 37 37 36 36 37 37 37 37 37 36 35 35 35 36 37 37
2 3 1 3 3 3 4 4 5 4 5 2 3 3 2 3 3 1 3 5 4 3 3 3 4 3 5 6 7 8 7 7 7 7 7 7 9 9 9 10 10 9 9 10 10 11 13 14 15 18 21 21 22 23 24 24 22 22 22 17 13 23 32 34 34 36 36 36 36 36 37 37 36 36 37 37 38 37 36 34 34 35 35 36 36 36
2 4 2 2 3 2 6 5 5 4 2 3 4 2 2 2 4 2 2 3 4 3 3 2 3 5 6 7 7 8 7 4 3 4 4 5 6 7 8 8 9 10 10 10 11 10 11 14 17 20 21 21 22 22 23 23 24 25 24 21 14 15 28 35 34 34 35 35 35 36 36 36 35 36 37 37 37 36 34 34 35 36 36 35 34 34
3 4 2 1 3 1 3 5 5 1 3 5 4 3 2 2 2 1 2 4 4 3 3 3 3 5 7 7 6 7 6 2 1 1 2 3 4 5 7 7 9 10 10 11 11 11 13 17 19 21 23 23 23 23 24 26 28 28 26 22 18 11 21 32 33 33 34 35 36 37 36 36 36 36 36 36 35 34 33 34 35 35 35 34 34 35
5 3 2 1 2 0 1 3 2 4 5 3 3 3 1 2 3 3 2 2 3 3 3 4 5 6 7 8 7 7 7 3 3 1 3 4 4 4 5 6 7 9 10 11 12 13 16 19 19 20 22 24 25 24 25 28 29 28 25 22 19 14 11 24 31 33 33 34 35 36 36 36 36 36 35 34 32 32 32 33 34 35 35 34 33 34
6 4 2 1 1 2 2 1 1 3 5 3 2 1 1 1 1 1 0 2 2 5 4 5 5 7 8 8 9 9 7 2 1 2 5 7 6 5 4 6 7 8 10 12 14 16 18 19 20 21 22 24 25 25 25 28 29 27 24 22 19 16 9 11 21 27 30 32 33 35 35 35 35 35 34 33 32 33 34 34 34 34 33 32 32 33
5 3 4 3 1 3 3 1 2 3 3 3 4 3 1 2 3 2 1 1 2 4 5 4 5 6 7 8 9 10 6 2 1 4 7 9 9 7 6 7 8 10 11 14 16 17 19 20 19 20 22 23 24 24 25 27 28 25 21 20 20 18 12 6 4 11 18 25 29 32 35 36 36 36 35 35 35 36 37 37 37 36 33 30 30 32
5 2 4 4 1 2 4 2 1 2 4 5 5 5 4 3 3 1 1 1 1 3 5 4 5 6 6 7 9 8 5 3 3 5 8 11 12 9 7 8 10 12 13 15 17 17 18 20 19 19 22 22 23 25 25 26 26 23 19 18 19 19 17 15 11 6 3 11 18 25 31 34 36 37 36 37 38 38 37 36 35 33 34 34 35 35
5 3 3 3 2 3 4 2 2 3 4 4 5 5 5 3 2 3 1 3 2 3 4 4 5 6 5 6 7 5 4 4 4 6 10 13 14 13 12 10 10 12 14 15 17 17 18 19 19 19 20 20 22 24 25 25 24 20 18 17 17 18 20 20 17 13 8 3 8 14 21 26 31 35 36 38 39 39 37 35 32 33 36 39 39 38
2 2 2 3 3 4 5 3 2 3 4 4 5 5 4 1 2 2 2 3 1 2 3 3 4 5 5 5 4 3 2 3 6 9 12 13 13 14 16 17 16 15 14 15 16 17 18 18 19 19 18 18 21 23 24 24 21 18 17 18 17 18 21 22 19 15 12 7 4 8 12 17 22 28 33 36 37 37 36 35 34 37 40 39 37 37
0 1 1 2 3 3 3 2 2 4 3 3 3 4 1 2 3 4 4 3 2 2 3 3 4 4 4 4 4 4 5 6 7 9 12 12 11 11 15 19 19 17 17 16 14 15 16 16 17 18 18 18 20 21 23 24 20 18 18 18 18 21 23 23 21 16 13 12 9 7 9 12 16 20 24 28 31 32 34 34 35 38 39 38 36 37
3 2 1 2 3 2 1 2 1 3 3 3 2 0 0 2 4 4 2 2 2 2 3 4 4 4 4 5 6 6 9 9 7 7 9 11 11 12 15 18 18 18 19 17 15 14 14 15 16 16 17 18 19 19 21 22 20 18 19 19 21 23 23 22 22 18 14 16 15 10 7 10 14 17 19 23 27 31 34 35 35 36 36 36 35 34
3 3 2 2 2 3 3 3 4 4 5 5 3 2 3 3 3 4 2 1 1 2 2 3 4 4 4 6 7 8 9 10 9 7 7 9 11 12 15 18 19 20 21 20 19 16 13 14 16 17 16 16 18 20 20 20 19 18 19 22 24 24 23 23 23 21 16 16 17 14 9 9 11 14 17 21 25 30 34 35 35 34 34 34 33 32
4 4 3 2 2 3 4 5 4 2 3 4 3 3 4 4 2 4 3 2 2 2 2 2 5 6 5 6 8 9 8 10 10 8 7 8 10 12 15 19 20 22 22 23 23 20 14 12 14 17 17 15 16 19 20 19 17 17 20 24 25 24 24 23 23 21 17 16 16 15 12 12 12 14 17 18 21 27 32 34 33 33 32 32 32 31
3 3 3 1 2 3 4 4 4 3 3 3 3 3 3 3 3 4 3 3 3 3 3 3 5 7 7 7 8 8 9 10 11 11 9 7 9 12 17 20 21 22 22 22 24 23 17 13 12 14 16 16 15 16 17 17 16 15 18 23 24 24 23 22 20 19 17 16 16 15 13 14 14 14 14 14 16 23 29 32 33 33 32 30 30 30
2 3 3 1 1 2 3 3 3 4 4 4 4 4 4 4 4 4 4 4 4 4 4 5 5 7 8 8 8 9 11 11 11 12 10 7 8 11 15 19 21 23 23 22 25 25 20 15 13 13 14 15 15 16 16 15 15 16 18 21 22 22 22 20 18 18 18 18 18 17 15 15 14 14 14 13 13 19 26 31 33 32 31 30 29 29
1 3 3 3 3 3 4 5 5 4 5 5 5 4 4 5 5 5 4 4 4 5 6 7 7 6 7 7 8 10 12 11 11 12 11 9 8 10 14 18 21 24 25 25 26 25 21 17 15 14 13 14 14 15 17 16 15 16 18 20 20 20 21 20 18 19 19 20 19 18 16 15 14 15 16 15 14 17 25 31 33 33 33 34 33 31
4 4 3 3 2 2 5 6 4 4 5 6 5 5 5 5 5 5 4 4 5 5 6 7 8 7 8 9 9 10 12 12 11 12 12 10 9 11 15 19 22 25 27 27 26 25 23 19 17 16 15 15 13 14 17 17 16 15 17 18 19 19 20 20 19 19 19 19 18 17 16 16 16 16 16 16 17 17 20 27 31 32 33 35 37 37
4 4 3 2 2 3 5 5 4 3 4 5 4 6 6 5 4 4 4 4 5 5 5 6 8 10 11 13 12 11 11 11 12 13 13 12 12 15 18 21 23 25 27 27 26 25 24 22 20 18 17 15 13 13 16 17 16 15 15 16 16 18 19 20 18 17 18 18 17 17 18 18 18 18 17 17 18 18 16 17 22 27 30 33 35 38
5 6 6 5 4 5 7 7 5 4 4 5 5 6 6 5 4 4 5 6 6 6 5 5 7 9 10 13 15 13 11 12 15 15 13 14 17 20 21 23 24 25 26 27 26 24 24 24 21 19 18 16 13 12 15 16 15 13 14 15 15 16 19 20 18 17 18 19 18 18 19 19 19 20 20 20 20 21 20 17 16 21 28 33 34 36
Wind_Direction
143 157 195 183 189 196 204 192 176 178 149 111 107 116 167 217 286 260 260 214 176 170 211 202 216 233 219 194 190 181 178 191 197 194 196 196 192 189 187 188 189 193 193 187 187 188 188 189 189 189 190 190 191 194 195 195 198 199 198 198 199 203 207 207 206 208 211 213 215 218 220 221 219 218 222 228 234 243 250 253 249 247 243 226 212 210
136 184 206 189 192 200 200 183 155 138 136 114 131 34 257 197 260 263 266 240 181 182 231 204 217 239 217 192 184 174 184 198 199 196 197 198 196 190 189 191 191 193 187 182 186 188 188 188 188 188 188 188 190 192 195 196 198 199 199 200 200 202 206 208 208 208 211 213 213 215 218 219 219 219 222 228 236 244 249 246 238 237 234 219 210 206
176 225 214 199 191 180 174 154 131 120 144 127 125 147 236 240 285 289 306 321 178 191 263 191 203 237 222 183 173 178 194 205 207 205 200 196 198 197 192 190 188 186 184 185 187 187 188 189 188 187 188 190 191 192 195 198 199 199 199 201 202 202 206 209 210 210 211 214 215 216 218 220 220 221 224 231 239 243 243 235 228 230 227 218 212 208
182 249 227 197 160 150 225 129 109 50 39 154 151 157 227 260 314 287 309 354 105 181 290 173 193 259 238 171 174 184 192 197 208 215 210 201 204 206 198 190 186 185 187 189 188 187 188 189 188 188 189 191 192 192 194 197 198 198 200 202 202 203 206 209 211 211 212 213 215 217 221 223 225 227 231 235 239 240 235 227 225 227 223 217 214 210
213 245 207 153 144 160 209 222 118 87 297 227 188 178 191 216 206 224 261 3 40 356 345 112 67 308 228 179 187 180 180 190 195 202 210 211 210 211 206 198 191 189 189 189 189 188 188 188 189 190 192 192 192 193 194 197 198 199 201 202 203 203 206 209 210 211 212 212 211 213 216 221 225 229 231 230 231 232 228 223 224 223 220 217 215 213
251 247 153 136 159 150 173 243 189 174 244 292 221 193 186 200 218 222 201 66 36 340 264 125 62 299 253 201 201 170 172 191 190 195 206 209 206 208 211 207 198 193 192 191 191 188 187 190 191 192 193 192 193 195 197 198 199 201 203 203 204 204 206 208 209 210 210 210 208 206 206 209 213 218 222 223 225 226 223 223 224 223 220 218 217 217
266 267 150 168 186 146 161 250 219 163 153 292 243 196 186 197 207 194 163 131 86 267 258 174 152 279 295 239 210 175 180 193 189 199 206 205 203 206 210 210 202 196 195 195 193 188 188 191 192 194 194 193 195 198 199 199 201 202 203 204 204 205 206 208 208 208 208 208 208 207 208 209 210 213 219 224 226 226 225 226 226 226 224 220 220 221
203 318 33 164 164 145 166 241 215 161 140 236 238 177 173 194 199 187 172 181 214 255 322 11 135 271 301 264 203 164 177 202 205 209 207 203 204 205 210 211 208 201 195 194 195 193 192 192 193 195 195 196 198 199 199 199 201 202 203 204 205 206 207 208 208 208 208 208 209 210 211 213 214 216 220 224 226 228 230 231 230 230 228 224 223 224
191 118 167 152 131 151 196 230 193 159 162 236 217 171 170 181 179 173 174 197 222 41 317 292 140 172 279 285 167 154 178 211 215 214 208 203 203 205 209 211 212 208 199 196 197 197 196 194 195 196 196 198 200 200 200 201 202 203 204 204 205 206 206 207 208 208 209 209 210 211 212 213 215 218 221 223 225 229 232 233 234 233 231 228 226 226
313 178 187 130 99 200 228 247 180 165 194 221 175 162 132 121 129 134 163 170 93 99 251 238 177 173 276 294 145 162 200 218 216 216 211 206 204 204 208 210 211 212 204 200 199 199 199 198 197 197 197 199 200 200 201 202 202 202 203 203 204 206 206 207 207 208 209 210 210 211 213 214 215 215 219 222 224 228 231 231 232 233 232 230 228 226
324 312 188 94 66 248 250 266 183 178 199 169 121 112 50 36 54 60 89 106 87 255 253 222 183 160 298 281 212 188 227 225 212 211 209 210 210 207 207 208 209 210 207 202 201 201 202 201 198 196 197 199 200 200 201 201 202 202 202 202 204 206 206 206 207 207 209 209 209 211 213 215 216 215 216 218 222 225 226 226 228 229 230 230 229 226
2 9 353 356 335 337 355 31 66 358 26 98 123 117 103 355 25 34 5 56 133 250 270 232 164 136 202 268 271 303 318 303 243 215 205 204 207 208 206 206 205 206 205 201 201 201 200 199 196 194 196 198 198 198 200 200 201 201 201 202 203 205 205 205 206 206 207 208 209 210 213 215 217 218 218 218 221 224 223 223 225 225 226 228 228 227
21 26 330 316 340 13 28 55 358 3 31 67 101 103 106 12 28 103 283 142 197 243 274 226 128 126 214 244 356 353 346 338 312 265 234 214 209 208 206 204 203 203 202 200 200 199 197 195 193 193 195 196 196 197 198 199 200 201 201 201 202 204 205 205 205 206 206 207 208 210 213 215 217 219 221 220 222 224 225 224 224 223 223 225 225 225
33 345 350 355 347 1 34 61 3 340 13 26 106 118 122 129 119 193 225 106 214 244 294 297 162 212 256 19 6 7 5 353 346 334 307 257 225 213 209 206 203 202 202 199 198 197 197 195 193 193 194 194 196 198 198 198 199 200 201 201 202 204 205 204 204 205 206 207 208 210 213 216 217 219 221 222 222 223 226 227 226 226 225 226 226 226
109 61 354 5 335 344 18 48 218 211 307 318 182 130 119 146 145 182 203 162 178 223 327 352 185 202 162 144 31 17 10 3 3 357 349 331 268 219 209 210 205 204 204 201 200 198 196 195 194 193 193 194 196 197 197 198 199 200 201 201 202 203 204 204 205 205 206 207 208 210 212 215 218 220 221 222 223 224 226 228 230 230 230 231 231 231
102 128 318 315 292 347 360 322 310 136 196 275 113 86 90 153 152 155 179 172 162 139 77 190 202 226 179 157 25 16 11 10 6 358 0 356 335 252 204 204 206 207 205 202 202 200 197 194 193 193 193 194 195 196 196 198 199 200 201 202 202 203 203 204 205 206 207 208 209 210 212 215 218 220 222 223 224 224 226 229 231 232 234 236 236 236
82 144 311 325 327 356 359 313 17 76 170 259 48 74 205 170 139 126 178 224 71 114 170 245 298 335 300 182 7 6 7 10 7 359 357 352 347 335 229 207 205 206 206 205 203 200 197 193 193 194 194 194 194 195 197 198 200 200 200 201 202 203 204 204 206 207 208 208 209 211 212 215 217 219 222 224 224 225 226 229 231 233 236 238 238 237
108 199 306 350 335 312 321 311 49 41 41 99 73 274 250 127 114 111 122 16 40 127 204 1 49 17 10 288 353 3 6 4 2 357 352 350 354 351 326 270 225 210 208 209 205 200 198 193 193 194 194 195 195 195 197 199 200 201 201 202 201 202 204 205 207 208 208 208 209 211 213 214 217 219 222 225 226 226 227 229 231 233 236 238 239 237
75 65 292 323 294 293 328 27 39 350 7 79 113 311 60 109 118 19 100 138 103 154 174 17 40 41 31 333 352 7 6 360 358 357 357 355 352 347 336 317 275 229 212 211 207 203 200 195 193 193 194 196 196 196 197 198 198 200 202 203 203 204 205 206 207 208 209 210 210 212 214 215 217 219 221 224 227 228 228 230 232 234 237 238 239 237
28 77 283 296 311 316 350 35 29 327 342 25 37 10 29 108 150 61 89 145 144 158 165 61 24 24 356 327 360 9 4 4 2 359 2 357 348 343 337 325 299 251 219 210 207 205 203 199 196 194 195 195 195 196 196 195 197 199 201 203 204 205 205 206 206 207 208 210 211 212 214 216 218 219 221 224 226 228 230 231 233 236 238 238 238 239
18 69 32 303 326 6 27 19 359 312 342 14 31 22 3 348 11 62 38 45 103 136 159 119 73 22 305 327 1 359 2 13 9 3 8 5 355 348 342 337 322 273 227 212 207 205 204 202 199 197 197 195 194 193 193 194 196 199 200 202 203 204 204 205 206 207 208 210 211 212 213 215 217 219 221 223 225 229 231 232 234 236 239 239 239 241
32 81 88 335 352 37 26 311 299 236 56 56 60 29 346 337 42 84 51 354 37 100 138 134 126 175 290 1 3 349 2 12 9 9 13 13 10 3 353 350 346 327 256 223 213 207 204 202 199 197 196 194 192 191 192 193 195 197 199 201 203 203 204 205 206 207 209 210 211 213 214 216 217 218 220 221 223 227 230 232 234 236 238 239 240 242
101 101 77 32 357 311 263 289 317 85 87 74 65 33 352 5 63 102 141 302 1 23 32 102 119 191 237 33 23 351 348 1 9 10 8 8 12 12 7 2 1 359 343 296 230 213 209 205 201 195 192 194 193 191 192 193 194 197 199 201 201 203 205 206 206 207 208 209 211 213 214 216 217 218 218 219 221 224 227 230 232 235 237 239 241 243
65 76 53 3 313 308 289 306 336 19 66 51 23 19 17 351 344 174 173 153 71 24 18 72 101 219 242 18 26 357 348 2 14 13 10 6 6 12 13 9 7 6 2 359 346 299 215 200 201 195 192 195 195 193 192 193 195 197 198 200 201 203 205 206 206 207 208 209 211 213 214 215 216 217 217 219 221 223 224 226 229 232 235 238 241 243
30 71 73 63 16 347 341 341 334 348 34 43 331 344 3 358 350 353 103 65 77 89 100 117 160 232 249 5 12 3 1 9 13 10 11 12 11 12 13 11 11 10 9 9 5 2 4 348 219 204 197 195 194 195 195 195 196 197 198 199 201 203 205 205 205 206 208 209 211 212 213 214 215 216 217 219 221 222 223 224 226 229 233 236 239 241
86 91 106 112 125 186 200 241 272 306 347 10 339 337 355 12 4 8 66 50 92 182 89 136 206 256 324 15 11 4 4 8 8 6 7 8 13 17 17 13 12 14 15 12 10 8 6 6 2 344 234 204 197 196 196 197 197 198 199 200 202 203 203 204 205 206 208 209 210 211 213 214 214 215 217 219 221 222 223 223 223 226 229 233 235 238
96 69 83 119 139 168 178 210 236 261 343 343 345 341 349 0 357 37 83 65 160 151 335 217 216 320 359 14 14 6 6 8 4 4 6 1 3 15 21 15 12 17 18 15 14 12 10 10 8 5 360 313 212 201 198 198 199 199 199 200 202 203 203 203 204 206 207 208 210 212 213 214 214 215 217 220 221 222 223 223 223 224 226 229 232 234
93 43 42 96 111 174 176 211 288 53 132 290 332 338 337 340 356 41 83 223 156 88 310 249 224 14 2 10 19 11 6 11 8 6 6 358 357 10 21 17 15 15 13 14 15 12 10 9 5 6 8 4 351 234 206 201 200 202 202 201 201 201 202 203 204 205 207 208 209 212 214 215 216 217 218 220 221 222 223 223 223 224 225 226 228 231
102 66 10 99 33 318 181 240 350 51 48 297 304 314 325 338 353 6 259 243 164 142 239 264 342 40 11 4 19 22 11 10 10 6 5 360 359 9 19 21 19 13 9 10 10 7 7 6 5 5 6 8 10 7 346 221 206 205 204 203 202 201 202 203 203 204 206 207 210 213 215 216 216 217 219 220 221 222 223 224 224 225 225 226 227 230
107 75 288 116 65 359 349 345 40 76 15 312 296 294 316 322 316 289 280 300 239 196 254 301 16 74 28 356 9 33 19 6 9 7 9 10 6 8 18 23 19 11 8 7 3 1 3 2 2 4 6 8 9 7 3 355 294 220 209 205 203 203 203 202 202 203 204 207 211 214 215 215 216 217 218 219 220 222 223 224 225 225 225 226 228 229
91 105 299 88 71 347 327 355 17 82 178 264 299 332 344 343 335 321 342 6 5 322 328 349 65 78 14 346 2 35 23 12 21 16 13 13 8 6 14 20 16 8 5 2 359 359 360 0 1 3 5 5 3 2 360 355 350 326 238 213 206 204 203 202 202 203 204 208 211 213 213 214 215 216 217 219 220 222 223 224 224 225 225 226 228 229
75 92 356 65 67 305 305 1 347 337 83 57 329 340 344 352 356 347 31 44 31 337 327 6 58 35 343 340 4 27 25 22 23 19 12 9 10 10 10 11 9 6 1 356 356 0 0 360 1 0 359 358 358 359 357 350 348 346 331 259 219 208 204 202 203 204 206 209 211 211 212 213 214 215 217 219 221 222 223 223 223 224 225 226 228 229
110 104 53 82 80 289 298 351 344 1 43 18 304 313 310 320 325 331 73 57 34 2 354 33 49 7 334 347 6 12 17 22 18 13 11 6 7 11 7 2 359 358 359 354 353 2 3 357 355 355 355 355 355 353 352 349 345 341 339 327 267 221 206 203 205 205 208 210 210 211 212 213 213 215 217 219 221 222 222 222 223 224 225 227 228 228
114 104 126 130 102 276 293 342 17 37 40 257 261 277 223 262 317 315 109 75 43 50 75 73 34 359 350 358 4 354 351 13 21 0 2 10 8 4 1 358 353 351 353 356 356 360 0 355 352 351 351 353 352 349 347 349 348 343 342 339 317 244 211 205 205 206 208 209 210 211 212 212 213 215 218 220 221 221 221 221 223 225 226 227 228 228
109 96 116 124 104 222 299 17 42 19 243 241 272 296 235 211 308 322 125 99 65 53 68 60 23 358 352 354 351 334 320 303 136 19 16 27 14 2 356 352 354 353 351 352 354 354 355 354 351 349 349 348 348 349 349 349 349 348 347 346 337 291 223 208 205 206 207 208 209 211 211 211 213 215 218 219 219 220 220 221 223 225 226 227 227 229
130 123 128 125 114 103 29 65 116 248 267 282 311 317 338 19 9 37 83 77 53 36 17 15 3 349 348 348 344 334 315 266 190 116 37 27 12 7 360 348 349 352 348 347 347 344 346 350 349 348 347 346 347 351 352 349 346 346 349 349 343 328 257 217 208 206 207 207 209 210 210 211 212 214 216 217 217 218 220 222 224 225 226 226 227 230
132 134 126 127 157 121 105 168 242 312 325 336 335 338 58 13 322 83 121 291 38 42 7 351 352 346 347 348 343 337 327 288 214 344 9 10 359 352 347 338 339 342 341 343 344 341 341 345 350 352 350 348 348 351 352 351 346 343 348 350 345 340 316 237 214 208 207 208 208 210 210 211 212 213 214 214 214 216 218 221 224 226 227 227 228 229
115 144 150 144 165 115 101 16 353 5 317 255 237 252 237 226 233 177 155 256 31 34 1 351 357 348 348 350 342 334 336 9 348 327 345 352 345 339 336 331 333 336 337 339 341 342 343 344 347 356 357 352 348 348 352 353 349 342 344 349 346 343 348 342 246 212 208 208 209 210 211 211 211 212 212 213 213 216 218 218 220 222 223 225 230 233
70 68 116 113 104 116 114 131 181 200 244 232 223 251 282 261 232 121 73 276 326 13 359 357 357 349 353 354 344 339 354 14 338 317 334 337 332 330 329 323 325 329 332 337 337 337 341 342 345 357 3 357 347 347 351 355 352 344 339 343 344 343 348 355 355 348 241 209 207 208 210 211 212 212 211 212 215 217 219 220 218 217 216 220 227 232
52 40 81 111 157 163 147 168 208 222 245 227 204 241 276 260 145 85 18 267 277 352 352 358 353 342 347 352 348 352 10 0 321 309 322 325 322 321 320 316 317 318 321 328 332 333 337 340 344 356 3 356 346 346 351 355 353 345 334 334 340 341 339 338 339 345 341 280 214 211 210 209 211 213 213 215 218 220 221 222 221 219 219 220 223 227
28 33 89 143 178 185 180 198 256 254 235 205 202 241 269 245 131 144 217 229 245 331 336 350 336 323 330 341 340 334 325 317 304 303 311 315 316 317 316 315 314 311 308 312 321 330 335 336 342 352 358 356 351 349 351 355 353 342 331 334 337 335 330 327 329 339 339 317 260 225 223 218 215 218 219 220 222 222 221 221 221 223 224 222 220 223
115 60 114 148 161 183 184 185 278 280 240 179 195 249 268 137 189 216 214 207 226 285 315 322 308 305 314 310 297 286 285 289 293 298 306 312 314 313 313 315 315 311 307 306 312 324 329 328 335 345 351 355 356 352 352 356 354 342 332 330 330 329 328 325 326 332 332 316 290 243 228 231 228 227 228 227 226 224 222 220 220 222 224 222 221 222
174 164 220 195 167 141 122 145 234 269 241 170 148 261 116 175 204 215 212 201 209 264 307 300 289 296 301 294 290 291 293 294 293 291 298 306 310 311 311 313 313 310 307 304 304 314 321 320 325 333 340 350 356 355 356 358 354 342 331 325 324 327 331 329 325 324 328 320 306 284 246 239 236 232 233 232 228 225 224 222 220 221 221 220 219 221
197 173 198 231 193 137 144 200 219 220 202 177 152 160 202 213 188 160 170 236 239 264 282 283 286 287 285 289 294 294 294 296 295 291 294 300 305 309 310 311 311 310 308 303 299 304 312 312 316 324 331 344 354 357 360 0 352 338 329 325 326 327 331 331 325 321 325 324 316 307 292 268 253 244 241 238 233 228 224 223 221 220 219 218 217 218
224 188 171 204 213 182 189 214 224 219 199 191 178 179 207 233 195 153 170 231 249 243 247 272 290 289 285 287 289 289 290 293 295 294 292 292 296 300 302 304 305 305 305 302 298 298 301 301 307 318 324 334 351 356 359 0 352 335 326 326 326 326 328 330 326 321 322 322 316 312 302 286 272 261 254 250 243 233 226 223 221 219 218 217 216 218
229 172 141 160 267 271 259 226 201 210 227 216 213 212 214 228 211 175 183 225 241 244 247 255 272 282 287 287 286 287 287 288 291 293 290 285 288 292 295 297 299 301 303 302 297 294 295 297 300 309 316 326 342 350 353 357 353 336 324 323 323 324 328 329 325 321 320 314 311 312 309 296 283 271 266 262 251 239 230 223 219 217 216 215 215 219
255 165 154 171 227 271 283 257 201 197 205 201 215 241 242 231 215 190 189 221 237 244 251 256 264 275 281 280 278 282 284 285 288 290 290 286 281 284 289 292 294 295 296 297 295 292 290 291 294 298 306 315 329 339 343 349 351 342 331 325 324 326 330 331 327 322 317 312 313 318 317 303 291 285 286 286 270 248 235 225 219 216 214 213 214 218
198 163 175 188 177 187 243 258 243 230 233 227 221 225 223 219 220 215 211 224 240 251 259 264 266 270 277 279 279 280 283 285 286 286 288 286 278 277 281 284 287 291 291 293 295 291 284 283 288 292 296 303 316 329 333 337 345 346 340 335 332 330 330 329 327 324 320 316 316 318 315 304 295 293 294 293 282 254 234 223 217 214 213 214 215 216
146 155 178 184 190 254 276 265 243 246 268 265 242 223 211 202 209 228 237 236 244 258 268 274 273 272 274 278 280 282 284 284 282 282 284 283 277 274 276 278 282 285 286 288 290 287 281 279 281 285 290 295 305 318 323 327 336 344 345 345 340 332 329 327 326 326 325 321 316 316 315 308 299 296 294 290 286 269 241 225 218 216 218 220 220 220
161 177 179 155 183 252 258 239 195 192 255 262 235 218 215 203 203 236 260 261 262 267 272 283 288 286 281 280 279 280 282 284 284 282 280 278 276 274 274 275 278 279 280 283 285 282 279 277 276 279 285 290 298 310 316 321 329 336 344 350 345 334 329 327 326 327 328 324 318 318 318 312 306 303 299 293 294 293 280 252 232 227 228 230 229 229
189 189 176 176 201 228 230 215 177 167 224 244 226 214 214 204 199 232 260 267 270 273 272 280 291 294 293 290 288 285 282 284 286 285 280 277 277 276 273 273 273 273 275 277 278 277 276 275 273 273 277 284 294 307 313 318 324 330 340 347 345 336 331 330 329 332 333 327 320 317 316 313 311 312 309 305 305 308 308 296 268 247 242 240 237 236